| time (UTC) | temp F | wind direction | speed MPH | gust MPH | rain 1hr in | rain 24hr in | rain mn in | humidity % | barometer mb |
| 20260507040503 | 60 | 286 | 1.0 | 2.0 | 0.00 | 0.09 | 0.00 | 90 | 1006.6 |
| 20260507040011 | 60 | 268 | 1.0 | 2.0 | 0.00 | 0.09 | 0.00 | 90 | 1006.7 |
| 20260507035504 | 60 | 285 | 1.0 | 2.0 | 0.00 | 0.09 | 0.09 | 90 | 1006.8 |
| 20260507035002 | 59 | 288 | 1.0 | 2.0 | 0.00 | 0.09 | 0.09 | 90 | 1006.8 |
| 20260507034514 | 59 | 296 | 1.0 | 2.0 | 0.00 | 0.09 | 0.09 | 90 | 1006.8 |
| 20260507034003 | 59 | 217 | 1.0 | 2.0 | 0.00 | 0.09 | 0.09 | 91 | 1006.7 |
| 20260507033503 | 59 | 253 | 1.0 | 3.0 | 0.00 | 0.09 | 0.09 | 91 | 1006.6 |
| 20260507033010 | 59 | 222 | 0.0 | 3.0 | 0.00 | 0.09 | 0.09 | 91 | 1006.4 |
| 20260507032504 | 59 | 295 | 0.0 | 2.0 | 0.00 | 0.09 | 0.09 | 91 | 1006.4 |
| 20260507032004 | 59 | 311 | 0.0 | 2.0 | 0.00 | 0.09 | 0.09 | 91 | 1006.4 |
| 20260507031515 | 59 | 262 | 0.0 | 2.0 | 0.00 | 0.09 | 0.09 | 91 | 1006.5 |
| 20260507031004 | 59 | 321 | 0.0 | 2.0 | 0.00 | 0.09 | 0.09 | 91 | 1006.3 |
| 20260507030506 | 59 | 265 | 0.0 | 2.0 | 0.00 | 0.09 | 0.09 | 91 | 1006.2 |
| 20260507030012 | 59 | 193 | 0.0 | 2.0 | 0.00 | 0.09 | 0.09 | 91 | 1006.1 |
| 20260507025503 | 59 | 8 | 0.0 | 3.0 | 0.00 | 0.09 | 0.09 | 91 | 1006.1 |
| 20260507025003 | 59 | 63 | 0.0 | 3.0 | 0.00 | 0.09 | 0.09 | 91 | 1006.2 |
| 20260507024515 | 59 | 248 | 0.0 | 2.0 | 0.00 | 0.09 | 0.09 | 91 | 1006.0 |
| 20260507024003 | 59 | 282 | 0.0 | 2.0 | 0.00 | 0.09 | 0.09 | 91 | 1005.8 |
| 20260507023504 | 59 | 186 | 0.0 | 2.0 | 0.00 | 0.09 | 0.09 | 91 | 1006.0 |
| 20260507023012 | 58 | 280 | 1.0 | 2.0 | 0.00 | 0.09 | 0.09 | 91 | 1006.1 |
| 20260507022504 | 58 | 306 | 0.0 | 3.0 | 0.00 | 0.09 | 0.09 | 91 | 1006.2 |
| 20260507022005 | 58 | 179 | 1.0 | 3.0 | 0.00 | 0.09 | 0.09 | 91 | 1006.0 |
| 20260507021519 | 58 | 265 | 1.0 | 3.0 | 0.00 | 0.09 | 0.09 | 91 | 1005.9 |
| 20260507021002 | 58 | 139 | 0.0 | 3.0 | 0.00 | 0.09 | 0.09 | 91 | 1005.9 |
| 20260507020508 | 58 | 212 | 1.0 | 2.0 | 0.00 | 0.09 | 0.09 | 92 | 1006.0 |
| 20260507020016 | 58 | 217 | 0.0 | 5.0 | 0.00 | 0.09 | 0.09 | 91 | 1006.1 |
| 20260507015503 | 58 | 229 | 1.0 | 5.0 | 0.00 | 0.09 | 0.09 | 91 | 1006.1 |
| 20260507015003 | 58 | 233 | 0.0 | 4.0 | 0.00 | 0.09 | 0.09 | 92 | 1006.1 |
| 20260507014515 | 58 | 343 | 0.0 | 4.0 | 0.00 | 0.09 | 0.09 | 91 | 1005.9 |
| 20260507014003 | 58 | 181 | 0.0 | 3.0 | 0.00 | 0.09 | 0.09 | 91 | 1005.9 |
| 20260507013504 | 58 | 199 | 0.0 | 4.0 | 0.00 | 0.09 | 0.09 | 91 | 1005.9 |
| 20260507013013 | 58 | 173 | 1.0 | 4.0 | 0.00 | 0.09 | 0.09 | 92 | 1006.1 |
| 20260507012503 | 58 | 163 | 0.0 | 2.0 | 0.00 | 0.09 | 0.09 | 91 | 1006.2 |
| 20260507012006 | 58 | 116 | 0.0 | 2.0 | 0.00 | 0.09 | 0.09 | 92 | 1006.2 |
| 20260507011515 | 58 | 196 | 0.0 | 2.0 | 0.00 | 0.09 | 0.09 | 91 | 1006.4 |
| 20260507011007 | 58 | 126 | 0.0 | 3.0 | 0.00 | 0.09 | 0.09 | 91 | 1006.4 |
| 20260507010507 | 58 | 186 | 1.0 | 3.0 | 0.01 | 0.09 | 0.09 | 91 | 1006.5 |
| 20260507010020 | 58 | 239 | 0.0 | 5.0 | 0.01 | 0.09 | 0.09 | 91 | 1006.4 |
| 20260507005503 | 58 | 227 | 1.0 | 5.0 | 0.01 | 0.09 | 0.09 | 91 | 1006.4 |
| 20260507005008 | 58 | 178 | 1.0 | 3.0 | 0.01 | 0.09 | 0.09 | 91 | 1006.5 |
| 20260507004512 | 58 | 128 | 0.0 | 5.0 | 0.01 | 0.09 | 0.09 | 91 | 1006.4 |
| 20260507004003 | 58 | 158 | 1.0 | 5.0 | 0.01 | 0.09 | 0.09 | 91 | 1006.5 |
| 20260507003508 | 58 | 313 | 1.0 | 4.0 | 0.01 | 0.09 | 0.09 | 91 | 1006.4 |
| 20260507003021 | 58 | 360 | 0.0 | 3.0 | 0.02 | 0.09 | 0.09 | 91 | 1006.3 |
| 20260507002505 | 58 | 56 | 0.0 | 3.0 | 0.02 | 0.09 | 0.09 | 91 | 1006.3 |
| 20260507002008 | 58 | 115 | 0.0 | 3.0 | 0.02 | 0.09 | 0.09 | 91 | 1006.2 |
| 20260507001522 | 58 | 226 | 0.0 | 8.0 | 0.03 | 0.09 | 0.09 | 91 | 1006.2 |
| 20260507001007 | 58 | 299 | 0.0 | 8.0 | 0.03 | 0.09 | 0.09 | 91 | 1006.1 |
| 20260507000507 | 58 | 139 | 1.0 | 4.0 | 0.03 | 0.08 | 0.08 | 91 | 1006.0 |
| 20260507000016 | 58 | 189 | 0.0 | 4.0 | 0.04 | 0.08 | 0.08 | 91 | 1006.0 |
| 20260506235508 | 58 | 218 | 0.0 | 4.0 | 0.04 | 0.08 | 0.08 | 91 | 1005.9 |
| 20260506235008 | 58 | 200 | 1.0 | 3.0 | 0.04 | 0.08 | 0.08 | 91 | 1006.0 |
| 20260506234521 | 58 | 180 | 1.0 | 4.0 | 0.04 | 0.08 | 0.08 | 91 | 1006.0 |
| 20260506234007 | 58 | 199 | 0.0 | 6.0 | 0.04 | 0.08 | 0.08 | 91 | 1005.9 |
| 20260506233507 | 58 | 302 | 1.0 | 6.0 | 0.04 | 0.08 | 0.08 | 91 | 1005.9 |
| 20260506233016 | 58 | 12 | 1.0 | 2.0 | 0.03 | 0.07 | 0.07 | 90 | 1006.0 |
| 20260506232504 | 58 | 40 | 0.0 | 2.0 | 0.03 | 0.07 | 0.07 | 90 | 1005.9 |
| 20260506232005 | 59 | 11 | 0.0 | 4.0 | 0.03 | 0.07 | 0.07 | 90 | 1005.9 |
| 20260506231518 | 59 | 247 | 1.0 | 4.0 | 0.02 | 0.06 | 0.06 | 90 | 1005.9 |
| 20260506231007 | 59 | 95 | 0.0 | 4.0 | 0.02 | 0.06 | 0.06 | 90 | 1005.9 |
| 20260506230506 | 59 | 283 | 1.0 | 6.0 | 0.01 | 0.05 | 0.05 | 90 | 1006.0 |
| 20260506230021 | 59 | 186 | 1.0 | 9.0 | 0.00 | 0.04 | 0.04 | 90 | 1005.9 |
| 20260506225507 | 59 | 117 | 0.0 | 9.0 | 0.00 | 0.04 | 0.04 | 90 | 1006.0 |
| 20260506225010 | 59 | 356 | 0.0 | 2.0 | 0.00 | 0.04 | 0.04 | 90 | 1005.9 |
| 20260506224521 | 59 | 353 | 1.0 | 4.0 | 0.00 | 0.04 | 0.04 | 90 | 1006.0 |
| 20260506224005 | 59 | 346 | 0.0 | 4.0 | 0.00 | 0.04 | 0.04 | 90 | 1006.0 |
| 20260506223506 | 59 | 238 | 0.0 | 3.0 | 0.01 | 0.04 | 0.04 | 90 | 1006.1 |
| 20260506223017 | 59 | 234 | 1.0 | 8.0 | 0.01 | 0.04 | 0.04 | 90 | 1006.1 |
| 20260506222506 | 59 | 216 | 2.0 | 8.0 | 0.01 | 0.04 | 0.04 | 90 | 1006.1 |
| 20260506222008 | 59 | 288 | 1.0 | 4.0 | 0.01 | 0.04 | 0.04 | 90 | 1006.1 |
| 20260506221519 | 59 | 264 | 1.0 | 4.0 | 0.01 | 0.04 | 0.04 | 90 | 1006.3 |
| 20260506221007 | 59 | 287 | 0.0 | 4.0 | 0.01 | 0.04 | 0.04 | 90 | 1006.3 |
| 20260506220507 | 59 | 193 | 1.0 | 4.0 | 0.01 | 0.04 | 0.04 | 90 | 1006.4 |
| 20260506220021 | 59 | 23 | 0.0 | 5.0 | 0.01 | 0.04 | 0.04 | 90 | 1006.4 |
| 20260506215504 | 59 | 125 | 1.0 | 5.0 | 0.01 | 0.04 | 0.04 | 90 | 1006.4 |
| 20260506215007 | 59 | 17 | 0.0 | 2.0 | 0.01 | 0.04 | 0.04 | 89 | 1006.4 |
| 20260506214523 | 60 | 229 | 0.0 | 3.0 | 0.01 | 0.04 | 0.04 | 89 | 1006.4 |
| 20260506214008 | 60 | 120 | 1.0 | 3.0 | 0.01 | 0.04 | 0.04 | 88 | 1006.4 |
| 20260506213504 | 60 | 84 | 0.0 | 3.0 | 0.00 | 0.03 | 0.03 | 88 | 1006.6 |
| 20260506213022 | 60 | 335 | 1.0 | 4.0 | 0.00 | 0.03 | 0.03 | 87 | 1006.6 |
| 20260506212508 | 60 | 232 | 2.0 | 4.0 | 0.00 | 0.03 | 0.03 | 86 | 1006.8 |
| 20260506212011 | 61 | 236 | 2.0 | 4.0 | 0.00 | 0.03 | 0.03 | 86 | 1006.7 |
| 20260506211523 | 61 | 174 | 0.0 | 3.0 | 0.00 | 0.03 | 0.03 | 86 | 1006.7 |
| 20260506211006 | 61 | 65 | 1.0 | 3.0 | 0.00 | 0.03 | 0.03 | 85 | 1006.7 |
| 20260506210507 | 61 | 333 | 1.0 | 3.0 | 0.00 | 0.03 | 0.03 | 85 | 1006.7 |
| 20260506210023 | 61 | 264 | 0.0 | 6.0 | 0.00 | 0.03 | 0.03 | 84 | 1006.7 |
| 20260506205511 | 61 | 209 | 1.0 | 6.0 | 0.00 | 0.03 | 0.03 | 84 | 1006.7 |
| 20260506205003 | 61 | 96 | 2.0 | 4.0 | 0.00 | 0.03 | 0.03 | 84 | 1006.8 |
| 20260506204504 | 61 | 359 | 1.0 | 7.0 | 0.01 | 0.03 | 0.03 | 84 | 1006.9 |
| 20260506204004 | 61 | 212 | 1.0 | 8.0 | 0.01 | 0.03 | 0.03 | 85 | 1006.8 |
| 20260506203503 | 61 | 294 | 2.0 | 11.0 | 0.01 | 0.03 | 0.03 | 84 | 1007.0 |
| 20260506203008 | 61 | 252 | 2.0 | 11.0 | 0.01 | 0.03 | 0.03 | 84 | 1007.0 |
| 20260506202504 | 61 | 146 | 1.0 | 11.0 | 0.02 | 0.03 | 0.03 | 83 | 1007.0 |
| 20260506202009 | 61 | 217 | 2.0 | 11.0 | 0.02 | 0.03 | 0.03 | 83 | 1007.1 |
| 20260506201511 | 61 | 1 | 2.0 | 11.0 | 0.02 | 0.03 | 0.03 | 83 | 1007.0 |
| 20260506201007 | 61 | 213 | 2.0 | 5.0 | 0.03 | 0.03 | 0.03 | 84 | 1006.9 |
| 20260506200508 | 61 | 338 | 1.0 | 5.0 | 0.03 | 0.03 | 0.03 | 84 | 1006.8 |
| 20260506200017 | 61 | 250 | 1.0 | 4.0 | 0.03 | 0.03 | 0.03 | 84 | 1006.8 |
| 20260506195507 | 61 | 221 | 1.0 | 4.0 | 0.03 | 0.03 | 0.03 | 84 | 1006.9 |
| 20260506195006 | 61 | 350 | 1.0 | 3.0 | 0.03 | 0.03 | 0.03 | 84 | 1006.8 |
| 20260506194524 | 61 | 288 | 2.0 | 3.0 | 0.02 | 0.02 | 0.02 | 83 | 1006.8 |
| 20260506194004 | 62 | 316 | 0.0 | 7.0 | 0.02 | 0.02 | 0.02 | 83 | 1006.9 |
| 20260506193503 | 62 | 300 | 2.0 | 7.0 | 0.02 | 0.02 | 0.02 | 82 | 1006.9 |
| 20260506193007 | 62 | 124 | 0.0 | 5.0 | 0.02 | 0.02 | 0.02 | 83 | 1007.2 |
| 20260506192505 | 62 | 250 | 1.0 | 3.0 | 0.01 | 0.01 | 0.01 | 82 | 1007.1 |
| 20260506192003 | 62 | 208 | 1.0 | 4.0 | 0.01 | 0.01 | 0.01 | 80 | 1007.0 |
| 20260506191510 | 63 | 13 | 1.0 | 7.0 | 0.01 | 0.01 | 0.01 | 78 | 1007.1 |
| 20260506191004 | 63 | 323 | 1.0 | 9.0 | 0.00 | 0.00 | 0.00 | 77 | 1007.2 |
| 20260506190506 | 64 | 135 | 3.0 | 9.0 | 0.00 | 0.00 | 0.00 | 74 | 1007.2 |
| 20260506190016 | 65 | 266 | 1.0 | 4.0 | 0.00 | 0.00 | 0.00 | 72 | 1007.1 |
| 20260506185505 | 66 | 307 | 1.0 | 4.0 | 0.00 | 0.00 | 0.00 | 70 | 1007.1 |
| 20260506185007 | 67 | 309 | 1.0 | 6.0 | 0.00 | 0.00 | 0.00 | 68 | 1007.0 |
| 20260506184527 | 67 | 323 | 2.0 | 8.0 | 0.00 | 0.00 | 0.00 | 67 | 1007.2 |
| 20260506184007 | 67 | 1 | 2.0 | 8.0 | 0.00 | 0.00 | 0.00 | 64 | 1007.3 |
| 20260506183507 | 68 | 79 | 0.0 | 6.0 | 0.00 | 0.00 | 0.00 | 65 | 1007.2 |
| 20260506183024 | 68 | 293 | 1.0 | 6.0 | 0.00 | 0.00 | 0.00 | 62 | 1007.2 |
| 20260506182503 | 69 | 61 | 1.0 | 5.0 | 0.00 | 0.00 | 0.00 | 61 | 1007.1 |
| 20260506182003 | 69 | 22 | 1.0 | 5.0 | 0.00 | 0.00 | 0.00 | 58 | 1007.3 |
| 20260506181508 | 70 | 345 | 1.0 | 6.0 | 0.00 | 0.00 | 0.00 | 59 | 1007.3 |
| 20260506181004 | 70 | 274 | 3.0 | 6.0 | 0.00 | 0.00 | 0.00 | 57 | 1007.2 |
| 20260506180505 | 70 | 295 | 2.0 | 4.0 | 0.00 | 0.00 | 0.00 | 57 | 1007.3 |
| 20260506180022 | 70 | 360 | 2.0 | 7.0 | 0.00 | 0.00 | 0.00 | 56 | 1007.2 |
| 20260506175506 | 70 | 229 | 2.0 | 7.0 | 0.00 | 0.00 | 0.00 | 56 | 1007.5 |
| 20260506175005 | 70 | 212 | 3.0 | 7.0 | 0.00 | 0.00 | 0.00 | 55 | 1007.4 |
| 20260506174518 | 71 | 336 | 2.0 | 8.0 | 0.00 | 0.00 | 0.00 | 55 | 1007.4 |
| 20260506174008 | 71 | 50 | 1.0 | 8.0 | 0.00 | 0.00 | 0.00 | 54 | 1007.6 |
| 20260506173508 | 71 | 89 | 2.0 | 7.0 | 0.00 | 0.00 | 0.00 | 53 | 1007.6 |
| 20260506173022 | 72 | 295 | 2.0 | 7.0 | 0.00 | 0.00 | 0.00 | 53 | 1007.6 |
| 20260506172509 | 72 | 330 | 3.0 | 8.0 | 0.00 | 0.00 | 0.00 | 52 | 1007.5 |
| 20260506172009 | 72 | 320 | 2.0 | 12.0 | 0.00 | 0.00 | 0.00 | 54 | 1007.6 |
| 20260506171512 | 72 | 355 | 3.0 | 17.0 | 0.00 | 0.00 | 0.00 | 52 | 1007.6 |
| 20260506171001 | 72 | 285 | 5.0 | 17.0 | 0.00 | 0.00 | 0.00 | 52 | 1007.6 |
| 20260506170505 | 72 | 352 | 3.0 | 7.0 | 0.00 | 0.00 | 0.00 | 52 | 1007.6 |
| 20260506170009 | 72 | 340 | 3.0 | 9.0 | 0.00 | 0.00 | 0.00 | 53 | 1007.6 |
| 20260506165505 | 72 | 318 | 3.0 | 9.0 | 0.00 | 0.00 | 0.00 | 54 | 1007.7 |
| 20260506165006 | 72 | 342 | 3.0 | 7.0 | 0.00 | 0.00 | 0.00 | 54 | 1007.8 |
| 20260506164518 | 71 | 100 | 3.0 | 6.0 | 0.00 | 0.00 | 0.00 | 53 | 1007.9 |
| 20260506164009 | 71 | 1 | 1.0 | 10.0 | 0.00 | 0.00 | 0.00 | 54 | 1008.1 |
| 20260506163512 | 72 | 279 | 3.0 | 10.0 | 0.00 | 0.00 | 0.00 | 53 | 1008.0 |
| 20260506163023 | 72 | 89 | 3.0 | 10.0 | 0.00 | 0.00 | 0.00 | 53 | 1008.1 |
| 20260506162509 | 72 | 246 | 2.0 | 6.0 | 0.00 | 0.00 | 0.00 | 54 | 1008.1 |
| 20260506162013 | 72 | 205 | 2.0 | 6.0 | 0.00 | 0.00 | 0.00 | 55 | 1008.2 |
| 20260506161525 | 72 | 83 | 2.0 | 7.0 | 0.00 | 0.00 | 0.00 | 55 | 1008.4 |
| 20260506161009 | 72 | 151 | 2.0 | 7.0 | 0.00 | 0.00 | 0.00 | 54 | 1008.4 |
| 20260506160509 | 72 | 35 | 2.0 | 6.0 | 0.00 | 0.00 | 0.00 | 54 | 1008.4 |
| 20260506160009 | 72 | 340 | 2.0 | 6.0 | 0.00 | 0.00 | 0.00 | 56 | 1008.5 |
| 20260506155503 | 71 | 205 | 1.0 | 8.0 | 0.00 | 0.00 | 0.00 | 56 | 1008.6 |
| 20260506155006 | 71 | 334 | 2.0 | 8.0 | 0.00 | 0.00 | 0.00 | 56 | 1008.8 |
| 20260506154512 | 71 | 283 | 2.0 | 7.0 | 0.00 | 0.00 | 0.00 | 55 | 1008.8 |
| 20260506154008 | 71 | 39 | 2.0 | 6.0 | 0.00 | 0.00 | 0.00 | 55 | 1008.9 |
| 20260506153508 | 71 | 27 | 2.0 | 8.0 | 0.00 | 0.00 | 0.00 | 55 | 1009.0 |
| 20260506153016 | 71 | 162 | 2.0 | 9.0 | 0.00 | 0.00 | 0.00 | 54 | 1009.0 |
| 20260506152505 | 71 | 89 | 2.0 | 9.0 | 0.00 | 0.00 | 0.00 | 56 | 1009.2 |
| 20260506152006 | 71 | 109 | 2.0 | 8.0 | 0.00 | 0.00 | 0.00 | 55 | 1009.2 |
| 20260506151532 | 71 | 314 | 2.0 | 8.0 | 0.00 | 0.00 | 0.00 | 56 | 1009.1 |
| 20260506151014 | 71 | 328 | 1.0 | 7.0 | 0.00 | 0.00 | 0.00 | 55 | 1009.3 |
| 20260506150507 | 72 | 340 | 2.0 | 5.0 | 0.00 | 0.00 | 0.00 | 55 | 1009.3 |
| 20260506150026 | 72 | 14 | 1.0 | 4.0 | 0.00 | 0.00 | 0.00 | 57 | 1009.3 |
| 20260506145517 | 72 | 224 | 1.0 | 5.0 | 0.00 | 0.00 | 0.00 | 56 | 1009.2 |
| 20260506145005 | 71 | 304 | 1.0 | 7.0 | 0.00 | 0.00 | 0.00 | 56 | 1009.4 |
| 20260506144508 | 71 | 315 | 1.0 | 7.0 | 0.00 | 0.00 | 0.00 | 58 | 1009.3 |
| 20260506144008 | 71 | 333 | 1.0 | 11.0 | 0.00 | 0.00 | 0.00 | 58 | 1009.2 |
| 20260506143505 | 71 | 39 | 2.0 | 11.0 | 0.00 | 0.00 | 0.00 | 58 | 1009.2 |
| 20260506143019 | 71 | 158 | 2.0 | 8.0 | 0.00 | 0.00 | 0.00 | 59 | 1009.3 |
| 20260506142508 | 70 | 302 | 1.0 | 8.0 | 0.00 | 0.00 | 0.00 | 60 | 1009.2 |
| 20260506142006 | 70 | 110 | 0.0 | 4.0 | 0.00 | 0.00 | 0.00 | 62 | 1009.1 |
| 20260506141521 | 69 | 295 | 1.0 | 3.0 | 0.00 | 0.00 | 0.00 | 63 | 1009.1 |
| 20260506141011 | 70 | 61 | 1.0 | 5.0 | 0.00 | 0.00 | 0.00 | 62 | 1009.1 |
| 20260506140506 | 69 | 198 | 1.0 | 5.0 | 0.00 | 0.00 | 0.00 | 63 | 1009.2 |
| 20260506140029 | 68 | 21 | 1.0 | 5.0 | 0.00 | 0.00 | 0.00 | 65 | 1009.3 |
| 20260506135510 | 68 | 226 | 1.0 | 6.0 | 0.00 | 0.00 | 0.00 | 65 | 1009.3 |
| 20260506135008 | 68 | 226 | 1.0 | 8.0 | 0.00 | 0.00 | 0.00 | 65 | 1009.3 |
| 20260506134526 | 67 | 111 | 3.0 | 8.0 | 0.00 | 0.00 | 0.00 | 65 | 1009.4 |
| 20260506134002 | 67 | 169 | 1.0 | 5.0 | 0.00 | 0.00 | 0.00 | 67 | 1009.3 |
| 20260506133503 | 66 | 233 | 1.0 | 5.0 | 0.00 | 0.00 | 0.00 | 68 | 1009.5 |
| 20260506133027 | 66 | 213 | 2.0 | 5.0 | 0.00 | 0.00 | 0.00 | 68 | 1009.8 |
| 20260506132508 | 66 | 320 | 1.0 | 6.0 | 0.00 | 0.00 | 0.00 | 68 | 1009.9 |
| 20260506132008 | 66 | 1 | 1.0 | 6.0 | 0.00 | 0.00 | 0.00 | 68 | 1009.8 |
| 20260506131523 | 66 | 110 | 1.0 | 6.0 | 0.00 | 0.00 | 0.00 | 69 | 1009.9 |
| 20260506131006 | 66 | 210 | 2.0 | 6.0 | 0.00 | 0.00 | 0.00 | 69 | 1009.9 |
| 20260506130507 | 65 | 353 | 1.0 | 7.0 | 0.00 | 0.00 | 0.00 | 70 | 1009.8 |
| 20260506130022 | 65 | 338 | 1.0 | 7.0 | 0.00 | 0.00 | 0.00 | 71 | 1009.8 |
| 20260506125509 | 65 | 256 | 1.0 | 6.0 | 0.00 | 0.00 | 0.00 | 71 | 1009.8 |
| 20260506125007 | 64 | 165 | 1.0 | 9.0 | 0.00 | 0.00 | 0.00 | 72 | 1009.7 |
| 20260506124524 | 64 | 231 | 1.0 | 9.0 | 0.00 | 0.00 | 0.00 | 73 | 1009.9 |
| 20260506124009 | 64 | 197 | 1.0 | 5.0 | 0.00 | 0.00 | 0.00 | 73 | 1009.8 |
| 20260506123507 | 63 | 107 | 0.0 | 6.0 | 0.00 | 0.00 | 0.00 | 73 | 1009.9 |
| 20260506123028 | 63 | 281 | 2.0 | 6.0 | 0.00 | 0.00 | 0.00 | 73 | 1010.1 |
| 20260506122503 | 63 | 168 | 1.0 | 6.0 | 0.00 | 0.00 | 0.00 | 73 | 1010.0 |
| 20260506122004 | 63 | 162 | 1.0 | 6.0 | 0.00 | 0.00 | 0.00 | 74 | 1010.0 |
| 20260506121517 | 62 | 327 | 1.0 | 4.0 | 0.00 | 0.00 | 0.00 | 75 | 1009.9 |
| 20260506121003 | 62 | 240 | 1.0 | 4.0 | 0.00 | 0.00 | 0.00 | 75 | 1009.9 |
| 20260506120507 | 62 | 283 | 0.0 | 7.0 | 0.00 | 0.00 | 0.00 | 75 | 1009.9 |
| 20260506120034 | 62 | 117 | 2.0 | 7.0 | 0.00 | 0.00 | 0.00 | 76 | 1009.9 |
| 20260506115512 | 61 | 49 | 1.0 | 3.0 | 0.00 | 0.00 | 0.00 | 77 | 1010.1 |
| 20260506115006 | 61 | 41 | 0.0 | 3.0 | 0.00 | 0.00 | 0.00 | 77 | 1010.2 |
| 20260506114523 | 61 | 168 | 0.0 | 6.0 | 0.00 | 0.00 | 0.00 | 77 | 1010.1 |
| 20260506114005 | 61 | 293 | 0.0 | 6.0 | 0.00 | 0.00 | 0.00 | 77 | 1010.1 |
| 20260506113504 | 61 | 203 | 1.0 | 4.0 | 0.00 | 0.00 | 0.00 | 77 | 1010.3 |
| 20260506113010 | 61 | 178 | 1.0 | 4.0 | 0.00 | 0.00 | 0.00 | 77 | 1010.6 |
| 20260506112503 | 61 | 270 | 0.0 | 4.0 | 0.00 | 0.00 | 0.00 | 77 | 1010.5 |
| 20260506112006 | 61 | 196 | 1.0 | 4.0 | 0.00 | 0.00 | 0.00 | 77 | 1010.4 |
| 20260506111515 | 61 | 207 | 0.0 | 3.0 | 0.00 | 0.00 | 0.00 | 78 | 1010.3 |
| 20260506111006 | 61 | 19 | 1.0 | 3.0 | 0.00 | 0.00 | 0.00 | 78 | 1010.3 |
| 20260506110509 | 60 | 198 | 0.0 | 3.0 | 0.00 | 0.00 | 0.00 | 77 | 1010.2 |
| 20260506110019 | 60 | 258 | 1.0 | 3.0 | 0.00 | 0.00 | 0.00 | 78 | 1010.1 |
| 20260506105506 | 60 | 360 | 1.0 | 3.0 | 0.00 | 0.00 | 0.00 | 78 | 1010.2 |
| 20260506105008 | 60 | 161 | 0.0 | 5.0 | 0.00 | 0.00 | 0.00 | 78 | 1010.1 |
| 20260506104523 | 60 | 296 | 1.0 | 5.0 | 0.00 | 0.00 | 0.00 | 79 | 1010.2 |
| 20260506104008 | 60 | 102 | 1.0 | 2.0 | 0.00 | 0.00 | 0.00 | 79 | 1010.2 |
| 20260506103507 | 60 | 172 | 1.0 | 2.0 | 0.00 | 0.00 | 0.00 | 78 | 1010.3 |
| 20260506103006 | 60 | 270 | 0.0 | 2.0 | 0.00 | 0.00 | 0.00 | 78 | 1010.4 |
| 20260506102504 | 60 | 262 | 0.0 | 2.0 | 0.00 | 0.00 | 0.00 | 78 | 1010.3 |
| 20260506102004 | 60 | 25 | 0.0 | 3.0 | 0.00 | 0.00 | 0.00 | 78 | 1010.4 |
| 20260506101509 | 60 | 313 | 0.0 | 4.0 | 0.00 | 0.00 | 0.00 | 77 | 1010.3 |
| 20260506101010 | 60 | 238 | 1.0 | 4.0 | 0.00 | 0.00 | 0.00 | 78 | 1010.3 |
| 20260506100503 | 60 | 269 | 1.0 | 3.0 | 0.00 | 0.00 | 0.00 | 78 | 1010.2 |
| 20260506100026 | 60 | 219 | 1.0 | 3.0 | 0.00 | 0.00 | 0.00 | 78 | 1010.2 |
| 20260506095505 | 59 | 322 | 1.0 | 4.0 | 0.00 | 0.00 | 0.00 | 78 | 1010.1 |
| 20260506095006 | 60 | 214 | 0.0 | 4.0 | 0.00 | 0.00 | 0.00 | 78 | 1010.1 |
| 20260506094520 | 60 | 188 | 0.0 | 3.0 | 0.00 | 0.00 | 0.00 | 78 | 1010.0 |
| 20260506094011 | 59 | 91 | 1.0 | 3.0 | 0.00 | 0.00 | 0.00 | 78 | 1010.1 |
| 20260506093512 | 60 | 187 | 0.0 | 2.0 | 0.00 | 0.00 | 0.00 | 78 | 1010.1 |
| 20260506093024 | 60 | 67 | 0.0 | 5.0 | 0.00 | 0.00 | 0.00 | 77 | 1010.2 |
| 20260506092509 | 60 | 67 | 0.0 | 5.0 | 0.00 | 0.00 | 0.00 | 77 | 1010.2 |
| 20260506092010 | 60 | 53 | 1.0 | 5.0 | 0.00 | 0.00 | 0.00 | 76 | 1010.2 |
| 20260506091510 | 60 | 226 | 1.0 | 5.0 | 0.00 | 0.00 | 0.00 | 76 | 1010.2 |
| 20260506091004 | 60 | 233 | 1.0 | 5.0 | 0.00 | 0.00 | 0.00 | 76 | 1010.2 |
| 20260506090505 | 60 | 137 | 1.0 | 7.0 | 0.00 | 0.00 | 0.00 | 76 | 1010.2 |
| 20260506090012 | 60 | 160 | 0.0 | 7.0 | 0.00 | 0.00 | 0.00 | 76 | 1010.2 |
| 20260506085504 | 60 | 285 | 0.0 | 6.0 | 0.00 | 0.00 | 0.00 | 76 | 1010.3 |
| 20260506085006 | 60 | 130 | 1.0 | 7.0 | 0.00 | 0.00 | 0.00 | 76 | 1010.3 |
| 20260506084523 | 60 | 281 | 1.0 | 7.0 | 0.00 | 0.00 | 0.00 | 76 | 1010.5 |
| 20260506084008 | 60 | 328 | 1.0 | 3.0 | 0.00 | 0.00 | 0.00 | 76 | 1010.3 |
| 20260506083507 | 60 | 16 | 1.0 | 4.0 | 0.00 | 0.00 | 0.00 | 76 | 1010.3 |
| 20260506083027 | 60 | 270 | 0.0 | 4.0 | 0.00 | 0.00 | 0.00 | 75 | 1010.3 |
| 20260506082506 | 60 | 228 | 0.0 | 3.0 | 0.00 | 0.00 | 0.00 | 75 | 1010.3 |
| 20260506082009 | 60 | 63 | 0.0 | 4.0 | 0.00 | 0.00 | 0.00 | 75 | 1010.3 |
| 20260506081528 | 60 | 235 | 1.0 | 5.0 | 0.00 | 0.00 | 0.00 | 75 | 1010.3 |
| 20260506081015 | 60 | 102 | 1.0 | 5.0 | 0.00 | 0.00 | 0.00 | 74 | 1010.3 |
| 20260506080504 | 61 | 281 | 1.0 | 4.0 | 0.00 | 0.00 | 0.00 | 74 | 1010.4 |
| 20260506073505 | 61 | 349 | 1.0 | 6.0 | 0.00 | 0.00 | 0.00 | 72 | 1010.3 |
| 20260506073021 | 61 | 214 | 2.0 | 6.0 | 0.00 | 0.00 | 0.00 | 72 | 1010.2 |
| 20260506072509 | 61 | 223 | 1.0 | 6.0 | 0.00 | 0.00 | 0.00 | 72 | 1010.2 |
| 20260506072015 | 61 | 210 | 1.0 | 4.0 | 0.00 | 0.00 | 0.00 | 72 | 1010.2 |
| 20260506071525 | 62 | 239 | 2.0 | 6.0 | 0.00 | 0.00 | 0.00 | 72 | 1010.1 |
| 20260506071007 | 62 | 79 | 1.0 | 7.0 | 0.00 | 0.00 | 0.00 | 71 | 1010.1 |
| 20260506070510 | 62 | 176 | 1.0 | 7.0 | 0.00 | 0.00 | 0.00 | 71 | 1010.0 |
| 20260506062507 | 63 | 22 | 0.0 | 8.0 | 0.00 | 0.00 | 0.00 | 68 | 1009.7 |
| 20260506062008 | 63 | 266 | 3.0 | 8.0 | 0.00 | 0.00 | 0.00 | 68 | 1009.7 |
| 20260506061523 | 63 | 71 | 1.0 | 6.0 | 0.00 | 0.00 | 0.00 | 67 | 1009.7 |
| 20260506061006 | 64 | 269 | 1.0 | 6.0 | 0.00 | 0.00 | 0.00 | 67 | 1009.7 |
| 20260506060507 | 64 | 284 | 1.0 | 6.0 | 0.00 | 0.00 | 0.00 | 66 | 1009.7 |
| 20260506051009 | 64 | 167 | 1.0 | 7.0 | 0.00 | 0.00 | 0.00 | 63 | 1010.1 |
| 20260506050510 | 64 | 182 | 1.0 | 7.0 | 0.00 | 0.00 | 0.00 | 63 | 1010.2 |
| 20260506045009 | 64 | 242 | 1.0 | 8.0 | 0.00 | 0.00 | 0.00 | 62 | 1010.2 |
| 20260506044527 | 64 | 221 | 1.0 | 8.0 | 0.00 | 0.00 | 0.00 | 62 | 1010.3 |
| 20260506044010 | 64 | 233 | 1.0 | 5.0 | 0.00 | 0.00 | 0.00 | 62 | 1010.3 |
| 20260506043510 | 64 | 319 | 1.0 | 6.0 | 0.00 | 0.00 | 0.00 | 62 | 1010.3 |
| 20260506043026 | 64 | 100 | 1.0 | 6.0 | 0.00 | 0.00 | 0.00 | 62 | 1010.3 |
| 20260506042505 | 64 | 188 | 1.0 | 3.0 | 0.00 | 0.00 | 0.00 | 62 | 1010.3 |
| 20260506042006 | 64 | 75 | 1.0 | 4.0 | 0.00 | 0.00 | 0.00 | 62 | 1010.4 |
| 20260506041519 | 64 | 359 | 0.0 | 4.0 | 0.00 | 0.00 | 0.00 | 62 | 1010.3 |
| 20260506041005 | 64 | 1 | 1.0 | 9.0 | 0.00 | 0.00 | 0.00 | 61 | 1010.3 |